[[{"header":{"parameterUnit":"m.s-1","parameterCategory":2,"la1":30.2991,"la2":30.254,"lo1":-89.0895,"lo2":-89.0444,"dx":0.0017,"dy":0.0017,"nx":28,"ny":28,"refTime":"2022-11-07T03:00:00:Z","depth":"0","parameterNumber":2,"parameterNumberName":"U-component_of_CURRENTS"},"data":[0,0,0,0,0,0,0,0,0,0,0,0,0,0,0,0,0,0,0,0,0,0,0,0,0,0,0,0,0,0,0,0,0,0,0,0,0,0,0,0,0,0,0,0,0,0,0,0,0,0,0,0,0,0,0,0,0,0,0.3463,0.3464,0,0.3475,0.3474,0.3473,0.3447,0.3447,0.3447,0.3447,0.3438,0.3437,0.3437,0,0,0,0,0,0,0,0,0,0,0,0,0,0.3273,0.3277,0.3463,0.3464,0.3465,0.3475,0.3474,0.3473,0.3447,0.3447,0.3447,0.3448,0.3438,0.3437,0.3437,0,0,0,0,0,0,0,0,0,0,0,0,0,0.3317,0.3278,0.3463,0.3462,0.3462,0.3475,0.3474,0.3473,0.3447,0.3447,0.3447,0.3448,0.3438,0.3437,0.3437,0.3427,0,0,0.3435,0.3434,0,0,0,0,0,0,0,0,0.3315,0.3323,0.3461,0.3462,0.3463,0.3469,0.3404,0.346,0.3447,0.3441,0.3447,0.3448,0.3453,0.3451,0.3437,0.3427,0.3427,0.3435,0.3434,0.3434,0.3434,0,0,0,0,0,0,0,0.3312,0.3322,0.3456,0.3462,0.3464,0.3412,0.3418,0.3413,0.3436,0.3442,0.3442,0.3461,0.3452,0.3438,0.3437,0.3426,0.3435,0.3434,0.3434,0.3433,0.3471,0.3472,0,0,0,0,0,0,0.3341,0.332,0.3456,0.3458,0.3401,0.3416,0.3423,0.3458,0.3437,0.3438,0.3461,0.346,0.3439,0.3438,0.3437,0.3464,0.3434,0.3433,0.3433,0.3469,0.3471,0.3473,0,0,0,0,0,0,0.3337,0.3354,0.3456,0.3396,0.3407,0.3422,0.3459,0.3458,0.3451,0.3454,0.3452,0.3457,0.3439,0.3438,0.3447,0.3462,0.3433,0.3433,0.3468,0.347,0.3472,0.3494,0,0,0,0,0,0,0.3332,0.3352,0.3364,0.3399,0.3412,0.3461,0.346,0.3459,0.3467,0.3466,0.345,0.3449,0.3439,0.3449,0.3447,0.3461,0.3432,0.3466,0.3469,0.3471,0.3492,0.3497,0.3501,0,0,0,0,0,0.3325,0.3352,0.3365,0.3381,0.3437,0.3463,0.3462,0.3464,0.3467,0.3457,0.3463,0.345,0.3464,0.3449,0.3446,0.3461,0.3465,0.3468,0.3471,0.349,0.3496,0.3501,0,0,0,0,0,0,0.3264,0.3354,0.3369,0.3418,0.3439,0.3462,0.3461,0.3468,0.3461,0.3466,0.3459,0.3458,0.347,0.3469,0.3452,0.3483,0.3466,0.3468,0.3481,0.3486,0.3491,0.3499,0.3431,0,0,0,0,0,0.3264,0.3315,0.337,0.3405,0.3421,0.344,0.3446,0.3456,0.3471,0.3467,0.3457,0.3464,0.348,0.3486,0.3484,0.3498,0.3506,0.3511,0.3516,0.352,0.3528,0.3552,0.3559,0.3483,0.3483,0.3483,0,0,0.3248,0.3308,0.3332,0.3396,0.3412,0.3429,0.3441,0.3464,0.3476,0.3469,0.3464,0.347,0.3486,0.3501,0.3508,0.3503,0.3548,0.3524,0.3527,0.3533,0.3556,0.3563,0.357,0.3485,0.3484,0.3484,0,0,0.3243,0.3299,0.333,0.3355,0.3404,0.3421,0.3433,0.3457,0.3463,0.3476,0.3481,0.3502,0.3505,0.3524,0.3538,0.3572,0.3566,0.3574,0.3608,0.3631,0.3638,0.3643,0.3668,0.3676,0.3583,0.3584,0.3584,0,0.321,0.3272,0.3332,0.3362,0.3384,0.3422,0.3436,0.3452,0.3469,0.3489,0.348,0.3517,0.352,0.3569,0.3585,0.3581,0.3595,0.3581,0.3636,0.3642,0.3647,0.3671,0.3679,0.3585,0.3585,0.3585,0.3585,0,0.3232,0.3265,0.3285,0.3345,0.337,0.3392,0.3441,0.3454,0.3474,0.3498,0.3538,0.3549,0.3581,0.3588,0.3599,0.3648,0.3645,0.3631,0.3617,0.3656,0.368,0.3687,0.3587,0.3587,0.3586,0.3586,0,0,0.3188,0.328,0.328,0.3303,0.3367,0.3392,0.3429,0.3477,0.3503,0.3531,0.3565,0.361,0.363,0.365,0.3664,0.3689,0.3739,0.3683,0.3684,0.3701,0.3798,0.3776,0.3783,0.3732,0.3734,0.3735,0.3801,0,0.3169,0.3223,0.3275,0.3301,0.3327,0.3383,0.341,0.3466,0.3503,0.3538,0.3601,0.3627,0.3653,0.3665,0.3707,0.3723,0.376,0.3723,0.3765,0.3766,0.3736,0.3791,0.3524,0.3558,0.3808,0.381,0.3811,0,0.3161,0.3205,0.3238,0.3299,0.3314,0.3332,0.3399,0.3429,0.3508,0.3539,0.3607,0.3644,0.3718,0.3708,0.3799,0.3775,0.38,0.3809,0.3811,0.3789,0.376,0.3561,0.3563,0.3433,0.3823,0.3822,0.3821,0,0.3114,0.317,0.3201,0.3223,0.3298,0.332,0.3353,0.3428,0.346,0.3536,0.3569,0.3662,0.3706,0.3759,0.3825,0.3809,0.3902,0.3875,0.3885,0.3883,0.3664,0.3641,0.3534,0.3933,0.3932,0.3932,0.3932,0,0.3086,0.3103,0.318,0.3197,0.3227,0.3289,0.3319,0.3367,0.3431,0.3481,0.3567,0.3622,0.372,0.3797,0.3837,0.3905,0.3925,0.3908,0.3905,0.3666,0.3644,0.3528,0.3502,0.3935,0.3934,0.3934,0.3933,0,0.3034,0.3083,0.3117,0.3187,0.3207,0.323,0.3292,0.3319,0.3381,0.3446,0.3473,0.3606,0.3717,0.3811,0.3896,0.3918,0.3836,0.3978,0.3703,0.3668,0.3548,0.3534,0.3389,0.3302,0.3992,0.3992,0.3992,0,0.3017,0.3032,0.31,0.3122,0.3151,0.3191,0.3221,0.3285,0.3316,0.344,0.3472,0.3605,0.3696,0.3833,0.3856,0.392,0.3826,0.373,0.3655,0.3522,0.3505,0.3404,0.3334,0.3368,0.3363,0.3359,0.3355,0,0.2978,0.3002,0.3039,0.3069,0.3101,0.3139,0.3183,0.3196,0.3286,0.3332,0.3418,0.349,0.3636,0.3592,0.3692,0.3696,0.3498,0.365,0.3551,0.3055,0.2894,0.2813,0.3366,0.3318,0.3322,0.3324,0.3326,0.3328,0.2938,0.2944,0.2977,0.2996,0.3036,0.3053,0.3023,0.3089,0.3108,0.312,0.3282,0.3291,0.3304,0.3401,0.3397,0.3195,0.3304,0.3061,0.3073,0.2999,0.2846,0.3351,0.3287,0.3291,0.3294,0.3296,0.3298,0,0.2848,0.2862,0.2895,0.2891,0.2875,0.2935,0.296,0.2895,0.2859,0.2952,0.2973,0.2901,0.2828,0.2832,0.2697,0.2592,0.2462,0.2522,0.2255,0.2235,0.2681,0.2582,0.2313,0.2313,0.2313,0.2313,0.2313,0.2313,0.2795,0.2769,0.2774,0.2702,0.2705,0.2616,0.259,0.2546,0.2559,0.2464,0.24,0.2413,0.2431,0.2292,0.2109,0.2065,0.1927,0.1813,0.1944,0.2178,0.2226,0.2271,0.2169,0.1817,0.1816,0.1295,0.1291,0.1287]},{"header":{"parameterUnit":"m.s-1","parameterCategory":2,"la1":30.2991,"la2":30.254,"lo1":-89.0895,"lo2":-89.0444,"dx":0.0017,"dy":0.0017,"nx":28,"ny":28,"refTime":"2022-11-07T03:00:00:Z","depth":"0","parameterNumber":3,"parameterNumberName":"V-component_of_CURRENTS"},"data":[0,0,0,0,0,0,0,0,0,0,0,0,0,0,0,0,0,0,0,0,0,0,0,0,0,0,0,0,0,0,0,0,0,0,0,0,0,0,0,0,0,0,0,0,0,0,0,0,0,0,0,0,0,0,0,0,0,0,-0.0713,-0.0714,0,-0.0808,-0.0808,-0.0809,-0.0883,-0.0884,-0.0886,-0.0887,-0.1129,-0.1134,-0.1139,0,0,0,0,0,0,0,0,0,0,0,0,0,-0.0427,-0.0432,-0.0712,-0.0714,-0.0716,-0.0808,-0.0809,-0.0809,-0.0883,-0.0884,-0.0886,-0.0887,-0.1127,-0.1133,-0.114,0,0,0,0,0,0,0,0,0,0,0,0,0,-0.0534,-0.0434,-0.0712,-0.0768,-0.0775,-0.0808,-0.0809,-0.0809,-0.0882,-0.0884,-0.0886,-0.0888,-0.1125,-0.1133,-0.1141,-0.1151,0,0,-0.1165,-0.1168,0,0,0,0,0,0,0,0,-0.0528,-0.0544,-0.0758,-0.0765,-0.0772,-0.0841,-0.0797,-0.0933,-0.0882,-0.0835,-0.0887,-0.0889,-0.1049,-0.1063,-0.1066,-0.1162,-0.1173,-0.1165,-0.117,-0.1174,-0.1176,0,0,0,0,0,0,0,-0.0521,-0.0539,-0.0744,-0.076,-0.0769,-0.0732,-0.075,-0.0821,-0.0928,-0.0839,-0.0846,-0.0866,-0.1053,-0.1058,-0.1073,-0.1176,-0.1165,-0.1172,-0.1177,-0.118,-0.139,-0.1391,0,0,0,0,0,0,-0.0529,-0.0533,-0.0741,-0.0747,-0.0659,-0.0737,-0.0757,-0.0812,-0.0924,-0.0944,-0.0865,-0.087,-0.1043,-0.1063,-0.1082,-0.1172,-0.1174,-0.1181,-0.1185,-0.139,-0.1391,-0.1392,0,0,0,0,0,0,-0.0523,-0.0548,-0.0737,-0.0644,-0.0667,-0.0742,-0.0801,-0.0813,-0.0822,-0.0943,-0.0965,-0.0863,-0.1046,-0.1071,-0.1159,-0.118,-0.1184,-0.1192,-0.1389,-0.139,-0.1391,-0.1307,0,0,0,0,0,0,-0.0515,-0.0546,-0.0557,-0.0647,-0.0673,-0.0749,-0.0801,-0.0813,-0.0834,-0.0841,-0.0949,-0.0973,-0.1049,-0.1147,-0.1167,-0.1191,-0.1198,-0.1388,-0.1389,-0.1391,-0.1309,-0.1305,-0.1303,0,0,0,0,0,-0.0505,-0.0542,-0.0558,-0.0581,-0.0698,-0.0749,-0.0757,-0.081,-0.0832,-0.0825,-0.0915,-0.097,-0.1172,-0.1153,-0.1177,-0.1203,-0.1387,-0.1389,-0.1391,-0.131,-0.1306,-0.1303,0,0,0,0,0,0,-0.0427,-0.0556,-0.0575,-0.0649,-0.0683,-0.0764,-0.0772,-0.0797,-0.0854,-0.0869,-0.0975,-0.1005,-0.1089,-0.1155,-0.1131,-0.127,-0.1291,-0.1297,-0.1222,-0.1219,-0.1215,-0.116,-0.1204,0,0,0,0,0,-0.0412,-0.0466,-0.0562,-0.0601,-0.0632,-0.0688,-0.0706,-0.0738,-0.0813,-0.0837,-0.092,-0.1019,-0.1111,-0.117,-0.1248,-0.1321,-0.1326,-0.1356,-0.1353,-0.135,-0.1322,-0.1364,-0.136,-0.1398,-0.1398,-0.1398,0,0,-0.0384,-0.0462,-0.0487,-0.0583,-0.0622,-0.0652,-0.0703,-0.0735,-0.0759,-0.0859,-0.092,-0.1001,-0.1124,-0.1208,-0.1253,-0.1271,-0.1335,-0.1352,-0.1348,-0.1322,-0.1365,-0.1361,-0.1358,-0.1399,-0.1399,-0.1399,0,0,-0.0349,-0.0435,-0.0456,-0.0493,-0.0554,-0.0605,-0.0611,-0.0688,-0.0728,-0.0788,-0.0876,-0.096,-0.1094,-0.1185,-0.1252,-0.1277,-0.1306,-0.1313,-0.1268,-0.1309,-0.1305,-0.1302,-0.1259,-0.1253,-0.1325,-0.1325,-0.1325,0,-0.0296,-0.0367,-0.0454,-0.0479,-0.0515,-0.0585,-0.06,-0.0646,-0.0731,-0.0768,-0.0803,-0.0983,-0.1084,-0.1197,-0.1212,-0.1268,-0.1261,-0.1271,-0.13,-0.1298,-0.1296,-0.1254,-0.1248,-0.1321,-0.1322,-0.1322,-0.1322,0,-0.0281,-0.0322,-0.0344,-0.0414,-0.0449,-0.0479,-0.057,-0.0601,-0.0663,-0.0712,-0.0811,-0.0936,-0.104,-0.11,-0.117,-0.1223,-0.1207,-0.1276,-0.1297,-0.1286,-0.1243,-0.1238,-0.1316,-0.1317,-0.1318,-0.1319,0,0,-0.0223,-0.0314,-0.0319,-0.0336,-0.0428,-0.0461,-0.0514,-0.0589,-0.0609,-0.07,-0.0736,-0.0905,-0.0943,-0.1018,-0.1116,-0.1166,-0.1145,-0.1204,-0.1208,-0.1134,-0.116,-0.1033,-0.1016,-0.1217,-0.1217,-0.1217,-0.1117,0,-0.0181,-0.0216,-0.0278,-0.0295,-0.0336,-0.0416,-0.0452,-0.0516,-0.0588,-0.0631,-0.0763,-0.083,-0.0926,-0.0965,-0.1028,-0.1123,-0.1136,-0.116,-0.1204,-0.1203,-0.1072,-0.1009,-0.0933,-0.0829,-0.1112,-0.1111,-0.1111,0,-0.016,-0.0196,-0.0214,-0.027,-0.0291,-0.03,-0.0381,-0.0409,-0.0492,-0.0544,-0.0624,-0.0703,-0.0795,-0.087,-0.0985,-0.0991,-0.1046,-0.1112,-0.1111,-0.1015,-0.1069,-0.0899,-0.081,-0.0898,-0.1104,-0.1104,-0.1105,0,-0.0114,-0.0159,-0.0177,-0.0198,-0.0263,-0.0276,-0.0304,-0.0378,-0.0394,-0.0467,-0.0466,-0.0596,-0.0637,-0.0748,-0.087,-0.0924,-0.0951,-0.106,-0.0983,-0.0973,-0.0925,-0.091,-0.0904,-0.1101,-0.1102,-0.1102,-0.1102,0,-0.009,-0.0103,-0.0149,-0.0159,-0.0162,-0.0216,-0.0208,-0.0259,-0.0284,-0.0263,-0.0394,-0.0387,-0.0608,-0.066,-0.0789,-0.0823,-0.0885,-0.092,-0.0936,-0.0888,-0.0872,-0.0963,-0.1049,-0.1098,-0.1099,-0.11,-0.11,0,-0.0052,-0.0082,-0.0094,-0.0133,-0.0141,-0.0137,-0.0135,-0.0114,-0.0149,-0.0116,-0.0123,-0.0216,-0.0264,-0.0434,-0.0589,-0.0683,-0.0774,-0.0765,-0.0638,-0.0639,-0.065,-0.0733,-0.0686,-0.0717,-0.0653,-0.0649,-0.0646,0,-0.0044,-0.0046,-0.006,-0.0042,-0.0055,-0.0048,-0.0024,-0.0055,-0.0016,0.0006,0.0048,0.0016,0.0021,-0.0109,-0.0279,-0.0404,-0.059,-0.0431,-0.0542,-0.0578,-0.0688,-0.0747,-0.0786,-0.0437,-0.0432,-0.0428,-0.0425,0,-0.0015,-0.0008,-0.0004,0.0034,0.0063,0.0087,0.0125,0.0175,0.0186,0.0246,0.0343,0.0363,0.0274,0.0203,0.0035,-0.0099,-0.0446,-0.0351,-0.0467,-0.0542,-0.0533,-0.0596,-0.0528,-0.0391,-0.0395,-0.0397,-0.0399,-0.04,0.003,0.0051,0.0087,0.0125,0.0167,0.0236,0.0296,0.0372,0.048,0.0608,0.0612,0.0727,0.0577,0.0379,0.0201,-0.0066,-0.0154,-0.0193,-0.0291,-0.0345,-0.0374,-0.0157,-0.0003,-0.0004,-0.0005,-0.0006,-0.0007,0,0.01,0.013,0.0177,0.0242,0.0322,0.031,0.0414,0.051,0.0687,0.0831,0.0958,0.1031,0.0848,0.0562,0.021,0.0008,-0.0143,-0.0143,-0.0277,-0.0328,-0.0193,-0.0185,0.0033,0.0033,0.0033,0.0033,0.0033,0.0033,0.0145,0.0218,0.0244,0.0382,0.0432,0.0547,0.0622,0.0764,0.0901,0.1139,0.1282,0.1352,0.1168,0.0501,0.0027,-0.0115,-0.033,-0.0289,-0.0437,-0.0426,-0.0441,-0.0457,-0.0469,-0.0315,-0.0315,-0.0532,-0.0534,-0.0536]}],[{"header":{"parameterUnit":"m.s-1","parameterCategory":2,"la1":30.2991,"la2":30.254,"lo1":-89.0895,"lo2":-89.0444,"dx":0.0017,"dy":0.0017,"nx":28,"ny":28,"refTime":"2022-11-07T03:00:00:Z","depth":"2","parameterNumber":2,"parameterNumberName":"U-component_of_CURRENTS"},"data":[0,0,0,0,0,0,0,0,0,0,0,0,0,0,0,0,0,0,0,0,0,0,0,0,0,0,0,0,0,0,0,0,0,0,0,0,0,0,0,0,0,0,0,0,0,0,0,0,0,0,0,0,0,0,0,0,0,0,0.229,0.2289,0,0.2299,0.23,0.2302,0.234,0.234,0.2339,0.2339,0.2217,0.2214,0.2211,0,0,0,0,0,0,0,0,0,0,0,0,0,0.2291,0.2292,0.229,0.2289,0.2288,0.2299,0.23,0.2302,0.234,0.234,0.2339,0.2339,0.2218,0.2214,0.2211,0,0,0,0,0,0,0,0,0,0,0,0,0,0.2307,0.2292,0.2291,0.2299,0.2299,0.2299,0.2301,0.2302,0.234,0.234,0.2339,0.2339,0.2219,0.2215,0.221,0.2191,0,0,0.2196,0.2194,0,0,0,0,0,0,0,0,0.2306,0.2309,0.2299,0.2298,0.2298,0.2307,0.2255,0.2254,0.234,0.2338,0.2339,0.2339,0.2226,0.2221,0.2244,0.2186,0.218,0.2196,0.2193,0.2191,0.219,0,0,0,0,0,0,0,0.2305,0.2308,0.2307,0.2297,0.2297,0.2296,0.23,0.2257,0.2292,0.2338,0.2338,0.2318,0.2227,0.2249,0.2241,0.2179,0.2196,0.2192,0.2189,0.2188,0.2285,0.229,0,0,0,0,0,0,0.2279,0.2307,0.2307,0.2306,0.2286,0.2295,0.23,0.2315,0.2296,0.229,0.2319,0.232,0.2257,0.2246,0.2236,0.2293,0.2191,0.2187,0.2185,0.228,0.2287,0.2292,0,0,0,0,0,0,0.228,0.2281,0.2306,0.2294,0.2296,0.2295,0.2312,0.2315,0.2356,0.228,0.2274,0.2356,0.2256,0.2243,0.224,0.2285,0.2185,0.2181,0.2274,0.2282,0.2289,0.2354,0,0,0,0,0,0,0.2281,0.2282,0.2281,0.2294,0.2295,0.2299,0.2311,0.2315,0.2336,0.2339,0.2309,0.2297,0.2255,0.2248,0.2236,0.2277,0.2178,0.2267,0.2278,0.2287,0.2345,0.2363,0.2378,0,0,0,0,0,0.2281,0.2265,0.2282,0.228,0.2296,0.2297,0.23,0.2305,0.2339,0.2347,0.236,0.2299,0.2305,0.2246,0.2232,0.2273,0.2262,0.2275,0.2286,0.2337,0.2359,0.2378,0,0,0,0,0,0,0.2264,0.2266,0.2286,0.2274,0.2284,0.2298,0.2305,0.2324,0.235,0.2377,0.2326,0.2314,0.2349,0.2317,0.2255,0.2349,0.2289,0.2299,0.2334,0.2354,0.237,0.2388,0.2174,0,0,0,0,0,0.226,0.2265,0.2266,0.2269,0.228,0.2311,0.2315,0.2337,0.2352,0.2368,0.2346,0.2363,0.2388,0.2371,0.2381,0.2387,0.2368,0.2428,0.2445,0.2458,0.2476,0.2505,0.2523,0.2331,0.2331,0.2331,0,0,0.2258,0.2258,0.2263,0.2267,0.2298,0.2313,0.2319,0.2352,0.2379,0.2344,0.2386,0.241,0.2413,0.2452,0.2464,0.2418,0.2505,0.2473,0.2483,0.2494,0.2519,0.2537,0.2552,0.2339,0.2338,0.2337,0,0,0.226,0.227,0.2281,0.2294,0.2321,0.2332,0.2346,0.2384,0.2417,0.2452,0.2477,0.2539,0.2522,0.256,0.2572,0.2691,0.2606,0.27,0.276,0.2788,0.2802,0.2814,0.2796,0.2806,0.2688,0.2688,0.2688,0,0.2257,0.2267,0.2282,0.2302,0.2314,0.2346,0.2376,0.2407,0.244,0.2473,0.2474,0.2589,0.259,0.2669,0.2734,0.2722,0.2701,0.2661,0.2801,0.2813,0.2824,0.2803,0.2813,0.2692,0.2692,0.2691,0.2691,0,0.2284,0.2281,0.2296,0.2334,0.2358,0.2382,0.2424,0.246,0.2509,0.2541,0.2647,0.2694,0.2756,0.2792,0.279,0.2897,0.2843,0.2822,0.2726,0.2846,0.2818,0.2827,0.2699,0.2697,0.2696,0.2695,0,0,0.2256,0.2304,0.2289,0.2322,0.2379,0.2398,0.2462,0.2509,0.2549,0.263,0.2697,0.2824,0.2874,0.2902,0.2934,0.2976,0.3047,0.2935,0.2934,0.2874,0.3067,0.2956,0.2953,0.3026,0.3028,0.3031,0.3005,0,0.2258,0.2277,0.231,0.2343,0.2369,0.2431,0.2477,0.2545,0.2594,0.2652,0.2772,0.2843,0.2903,0.2945,0.3017,0.3047,0.3078,0.3054,0.2999,0.2998,0.2849,0.2965,0.273,0.2682,0.3013,0.3015,0.3016,0,0.2246,0.2254,0.2294,0.2355,0.2378,0.241,0.2492,0.255,0.2646,0.2692,0.2808,0.2865,0.3003,0.3013,0.3136,0.3106,0.311,0.3121,0.3118,0.3001,0.2905,0.2628,0.2685,0.303,0.3029,0.3028,0.3027,0,0.2189,0.2226,0.2256,0.2281,0.2367,0.2412,0.2465,0.2562,0.2631,0.2717,0.2756,0.2904,0.2985,0.3051,0.3116,0.3116,0.3193,0.3178,0.3078,0.3067,0.2855,0.2821,0.3245,0.3245,0.3245,0.3245,0.3245,0,0.2151,0.2153,0.2229,0.2236,0.2283,0.2393,0.2459,0.251,0.2635,0.2697,0.2789,0.284,0.3,0.3059,0.3105,0.3122,0.3184,0.3114,0.3073,0.2872,0.2842,0.3137,0.3125,0.3244,0.3244,0.3245,0.3245,0,0.2083,0.2123,0.2163,0.2241,0.2258,0.2315,0.2442,0.2495,0.2597,0.2676,0.2709,0.283,0.289,0.2992,0.3076,0.3088,0.3108,0.3078,0.2815,0.2745,0.296,0.2953,0.2984,0.298,0.2977,0.2974,0.2972,0,0.2051,0.2064,0.2139,0.2163,0.2195,0.2276,0.2324,0.2456,0.2531,0.2641,0.2681,0.2755,0.2769,0.285,0.2873,0.2896,0.3006,0.2681,0.2674,0.2987,0.2944,0.2941,0.2938,0.2406,0.2399,0.2394,0.2389,0,0.1987,0.203,0.2048,0.2099,0.2146,0.2195,0.2281,0.2327,0.248,0.2506,0.2535,0.2538,0.2607,0.2529,0.2568,0.2561,0.267,0.257,0.2968,0.2514,0.2442,0.24,0.2416,0.2341,0.2346,0.2349,0.2352,0.2354,0.1933,0.1937,0.1979,0.2019,0.2068,0.2095,0.2085,0.2174,0.2216,0.2239,0.2333,0.2254,0.2305,0.224,0.2185,0.2173,0.2379,0.2303,0.232,0.2342,0.2286,0.2214,0.2056,0.2059,0.2062,0.2064,0.2066,0,0.1874,0.1875,0.1896,0.1907,0.1915,0.1998,0.2037,0.1999,0.1956,0.2008,0.1994,0.1809,0.175,0.1818,0.1717,0.1736,0.1732,0.168,0.1658,0.1707,0.175,0.1665,0.1269,0.1267,0.1264,0.1262,0,0,0.1843,0.1819,0.1814,0.1754,0.1774,0.1729,0.173,0.1663,0.1668,0.1566,0.1526,0.164,0.1727,0.1454,0.1441,0.1331,0.1504,0.1278,0.1918,0.1938,0.1978,0.2113,0.2036,0,0,0,0,0]},{"header":{"parameterUnit":"m.s-1","parameterCategory":2,"la1":30.2991,"la2":30.254,"lo1":-89.0895,"lo2":-89.0444,"dx":0.0017,"dy":0.0017,"nx":28,"ny":28,"refTime":"2022-11-07T03:00:00:Z","depth":"2","parameterNumber":3,"parameterNumberName":"V-component_of_CURRENTS"},"data":[0,0,0,0,0,0,0,0,0,0,0,0,0,0,0,0,0,0,0,0,0,0,0,0,0,0,0,0,0,0,0,0,0,0,0,0,0,0,0,0,0,0,0,0,0,0,0,0,0,0,0,0,0,0,0,0,0,0,0.0412,0.0411,0,0.0298,0.0296,0.0295,0.0235,0.0235,0.0235,0.0235,0.023,0.023,0.0229,0,0,0,0,0,0,0,0,0,0,0,0,0,0.0396,0.0398,0.0412,0.0411,0.0409,0.0298,0.0296,0.0294,0.0235,0.0235,0.0235,0.0235,0.023,0.023,0.0229,0,0,0,0,0,0,0,0,0,0,0,0,0,0.0353,0.0398,0.0412,0.0368,0.0363,0.0298,0.0296,0.0294,0.0235,0.0235,0.0235,0.0235,0.023,0.023,0.0229,0.0225,0,0,0.0228,0.0228,0,0,0,0,0,0,0,0,0.0356,0.0354,0.0376,0.0371,0.0365,0.0282,0.0288,0.0277,0.0235,0.0282,0.0235,0.0236,0.0259,0.0256,0.023,0.0225,0.0224,0.0228,0.0228,0.0228,0.0228,0,0,0,0,0,0,0,0.0359,0.0357,0.0365,0.0374,0.0368,0.0291,0.0287,0.0284,0.0272,0.0278,0.0273,0.0264,0.0256,0.023,0.023,0.0224,0.0228,0.0228,0.0228,0.0228,0.0198,0.0197,0,0,0,0,0,0,0.0387,0.0362,0.0369,0.0362,0.0363,0.0292,0.0287,0.0307,0.0269,0.0263,0.0264,0.0261,0.0231,0.023,0.023,0.023,0.0228,0.0228,0.0227,0.0198,0.0197,0.0197,0,0,0,0,0,0,0.0388,0.039,0.0373,0.0358,0.0351,0.0294,0.0316,0.0305,0.0266,0.0258,0.0253,0.0235,0.0231,0.023,0.0217,0.0229,0.0228,0.0227,0.0199,0.0198,0.0197,0.0226,0,0,0,0,0,0,0.0388,0.0392,0.0401,0.0362,0.0353,0.0356,0.0316,0.0303,0.0262,0.0257,0.0232,0.0232,0.0231,0.0217,0.0216,0.0229,0.0227,0.02,0.0198,0.0197,0.0226,0.0226,0.0226,0,0,0,0,0,0.0389,0.0412,0.0403,0.0402,0.0374,0.0357,0.0346,0.0301,0.026,0.0261,0.0224,0.0232,0.021,0.0216,0.0215,0.0228,0.02,0.0199,0.0198,0.0226,0.0226,0.0226,0,0,0,0,0,0,0.04,0.0407,0.0396,0.0418,0.0397,0.0348,0.0335,0.0293,0.0257,0.0242,0.0223,0.0221,0.0218,0.0209,0.0216,0.0212,0.0207,0.0205,0.0229,0.0229,0.0229,0.0266,0.0227,0,0,0,0,0,0.0411,0.0435,0.042,0.0432,0.0429,0.0374,0.0351,0.032,0.0286,0.0266,0.0246,0.0221,0.0211,0.0208,0.0203,0.0198,0.0195,0.0203,0.0204,0.0204,0.0231,0.0229,0.0232,0.0192,0.0192,0.0192,0,0,0.0412,0.042,0.0429,0.0435,0.0411,0.041,0.0361,0.0334,0.0319,0.0276,0.0251,0.0226,0.0209,0.0206,0.0204,0.0201,0.0206,0.0203,0.0204,0.0231,0.0228,0.0232,0.0236,0.0192,0.0192,0.0192,0,0,0.0427,0.0444,0.0464,0.0457,0.0434,0.0417,0.0411,0.0364,0.0338,0.0307,0.0272,0.0256,0.0227,0.0228,0.0221,0.0218,0.0209,0.0202,0.0238,0.0234,0.0238,0.0242,0.0216,0.0218,0.0202,0.0202,0.0202,0,0.0424,0.0459,0.046,0.0469,0.0467,0.0427,0.0433,0.0404,0.0351,0.0341,0.031,0.0265,0.0247,0.0255,0.0246,0.0226,0.0207,0.024,0.0238,0.0242,0.0245,0.0218,0.0219,0.0203,0.0203,0.0203,0.0203,0,0.0448,0.047,0.0481,0.0499,0.0495,0.0498,0.0475,0.0466,0.0424,0.0386,0.0371,0.0335,0.0317,0.0298,0.0268,0.0281,0.0252,0.0241,0.0245,0.0252,0.0221,0.0222,0.0205,0.0205,0.0204,0.0204,0,0,0.0481,0.0498,0.0508,0.0513,0.0514,0.0515,0.0522,0.0523,0.0529,0.0469,0.0476,0.043,0.0398,0.0388,0.0351,0.034,0.0326,0.0296,0.0295,0.0285,0.0294,0.026,0.0257,0.0306,0.0307,0.0308,0.0254,0,0.0506,0.0544,0.0543,0.0568,0.0587,0.0574,0.0594,0.0578,0.0562,0.0564,0.0516,0.0507,0.0434,0.0429,0.0403,0.0363,0.0333,0.034,0.0278,0.0276,0.0258,0.026,0.027,0.0222,0.0254,0.0255,0.0255,0,0.0539,0.0568,0.0606,0.0624,0.0632,0.0641,0.0685,0.0683,0.0684,0.067,0.0649,0.0608,0.0587,0.0524,0.0455,0.0456,0.0376,0.0331,0.0327,0.0298,0.0246,0.0224,0.0223,0.0256,0.0256,0.0256,0.0256,0,0.0585,0.061,0.0651,0.0655,0.0674,0.0692,0.0703,0.0717,0.0735,0.0743,0.076,0.0714,0.0699,0.0617,0.0498,0.0477,0.0418,0.0381,0.0271,0.0266,0.0269,0.0263,0.0327,0.0327,0.0328,0.0328,0.0328,0,0.0627,0.0655,0.0674,0.0696,0.0748,0.073,0.0783,0.0798,0.0825,0.0862,0.0809,0.0837,0.072,0.066,0.0543,0.0414,0.0446,0.029,0.0261,0.0272,0.0268,0.03,0.0298,0.0326,0.0326,0.0326,0.0327,0,0.0664,0.0681,0.0723,0.0757,0.077,0.0802,0.0836,0.0875,0.0894,0.0954,0.0962,0.0928,0.0853,0.0722,0.0596,0.0474,0.0363,0.0298,0.0307,0.028,0.0196,0.0195,0.0184,0.0182,0.0181,0.018,0.0179,0,0.0687,0.0716,0.0775,0.0809,0.0824,0.0864,0.0904,0.092,0.0965,0.1013,0.1051,0.0996,0.0966,0.0764,0.0565,0.0369,0.0336,0.023,0.0198,0.0214,0.0186,0.0188,0.0189,0.0195,0.0194,0.0194,0.0193,0,0.073,0.0754,0.0797,0.0874,0.0917,0.0967,0.1017,0.1067,0.1099,0.1149,0.1195,0.1175,0.098,0.079,0.0516,0.0378,0.027,0.0211,0.0249,0.023,0.0221,0.0195,0.0196,0.0189,0.0189,0.019,0.019,0.019,0.0764,0.0803,0.0863,0.093,0.0987,0.1059,0.1106,0.1162,0.1237,0.129,0.128,0.1229,0.1033,0.0668,0.0455,0.0217,0.0224,0.0128,0.0132,0.0136,0.0147,0.0137,0.0089,0.0089,0.0089,0.0089,0.0089,0,0.0794,0.0836,0.0907,0.0989,0.1052,0.1074,0.1173,0.1209,0.1292,0.1324,0.1334,0.1122,0.0916,0.0677,0.0329,0.0131,0.012,0.0054,0.0094,0.01,0.0105,0.0116,0.0049,0.0048,0.0047,0.0047,0,0,0.0807,0.0872,0.0907,0.1017,0.1072,0.1147,0.12,0.1266,0.1303,0.1309,0.1266,0.1211,0.0957,0.0696,0.044,0.0243,0.0209,0.0193,0.0246,0.033,0.0337,0.0167,0.0193,0,0,0,0,0]}],[{"header":{"parameterUnit":"m.s-1","parameterCategory":2,"la1":30.2991,"la2":30.254,"lo1":-89.0895,"lo2":-89.0444,"dx":0.0017,"dy":0.0017,"nx":28,"ny":28,"refTime":"2022-11-07T03:00:00:Z","depth":"4","parameterNumber":2,"parameterNumberName":"U-component_of_CURRENTS"},"data":[0,0,0,0,0,0,0,0,0,0,0,0,0,0,0,0,0,0,0,0,0,0,0,0,0,0,0,0,0,0,0,0,0,0,0,0,0,0,0,0,0,0,0,0,0,0,0,0,0,0,0,0,0,0,0,0,0,0,0.0863,0.0864,0,0.0952,0.0953,0.0954,0.0992,0.0992,0.0992,0.0991,0.0998,0.0999,0.0999,0,0,0,0,0,0,0,0,0,0,0,0,0,0.0939,0.0936,0.0863,0.0864,0.0865,0.0952,0.0953,0.0954,0.0992,0.0992,0.0992,0.0991,0.0998,0.0999,0.0999,0,0,0,0,0,0,0,0,0,0,0,0,0,0.0954,0.0935,0.0863,0.0895,0.0898,0.0952,0.0953,0.0955,0.0992,0.0992,0.0991,0.0991,0.0998,0.0999,0.0999,0.1006,0,0,0.1001,0.1001,0,0,0,0,0,0,0,0,0.0952,0.0951,0.0889,0.0892,0.0897,0.0961,0.0983,0.0968,0.0992,0.0956,0.0991,0.0991,0.0979,0.0981,0.0999,0.1007,0.1007,0.1001,0.1001,0.1001,0.1001,0,0,0,0,0,0,0,0.0951,0.0948,0.0898,0.089,0.0895,0.0978,0.0978,0.0982,0.0965,0.0959,0.0962,0.0973,0.098,0.0998,0.0999,0.1007,0.1001,0.1001,0.1001,0.1002,0.1055,0.1056,0,0,0,0,0,0,0.0929,0.0945,0.0895,0.0901,0.0925,0.0976,0.0976,0.094,0.0967,0.0972,0.0973,0.0974,0.0998,0.0998,0.0999,0.1037,0.1001,0.1002,0.1002,0.1054,0.1056,0.1057,0,0,0,0,0,0,0.0929,0.0922,0.0891,0.0929,0.0931,0.0973,0.0934,0.0942,0.099,0.0979,0.0982,0.1016,0.0997,0.0998,0.1013,0.1036,0.1002,0.1002,0.1053,0.1055,0.1056,0.1094,0,0,0,0,0,0,0.093,0.092,0.0926,0.0925,0.0928,0.0934,0.0935,0.0944,0.0995,0.0999,0.1016,0.1015,0.0997,0.1012,0.1013,0.1036,0.1003,0.1051,0.1054,0.1056,0.1091,0.1097,0.1102,0,0,0,0,0,0.0932,0.0934,0.0924,0.0921,0.0918,0.0935,0.0945,0.0977,0.0998,0.102,0.1026,0.1016,0.1027,0.1013,0.1015,0.1038,0.105,0.1053,0.1055,0.1089,0.1096,0.1102,0,0,0,0,0,0,0.0987,0.0938,0.0927,0.0917,0.0929,0.0942,0.0979,0.1,0.1028,0.1035,0.1027,0.1026,0.1045,0.1042,0.1027,0.1061,0.1039,0.1042,0.1065,0.1071,0.1076,0.1083,0.1003,0,0,0,0,0,0.0992,0.0967,0.0949,0.0947,0.0949,0.0972,0.0999,0.101,0.1022,0.1038,0.1052,0.106,0.1054,0.1063,0.1059,0.1083,0.1099,0.1101,0.1106,0.111,0.1118,0.1171,0.1182,0.1065,0.1065,0.1065,0,0,0.1015,0.0988,0.0977,0.0958,0.0968,0.0978,0.0987,0.102,0.1037,0.1031,0.1076,0.1077,0.1063,0.1078,0.1088,0.1082,0.1151,0.1114,0.1117,0.1122,0.1175,0.1187,0.1197,0.1067,0.1067,0.1066,0,0,0.104,0.1015,0.1004,0.1006,0.1015,0.102,0.1034,0.1057,0.1076,0.1107,0.11,0.1121,0.1136,0.1128,0.1122,0.1159,0.1171,0.1166,0.1205,0.1257,0.1267,0.1276,0.1308,0.1319,0.1176,0.1176,0.1176,0,0.1078,0.1041,0.1018,0.1014,0.1024,0.1036,0.1045,0.1065,0.1099,0.112,0.1124,0.1168,0.1155,0.1169,0.1175,0.1171,0.1201,0.1179,0.1264,0.1274,0.1283,0.1313,0.1325,0.1178,0.1178,0.1178,0.1178,0,0.1075,0.1072,0.1074,0.1047,0.1061,0.1075,0.1073,0.1113,0.1143,0.1163,0.1206,0.1205,0.1239,0.1234,0.121,0.1265,0.1266,0.1259,0.1249,0.1297,0.1325,0.1337,0.1181,0.1181,0.118,0.1179,0,0,0.1084,0.1071,0.1077,0.1074,0.1077,0.1081,0.1111,0.1137,0.118,0.1217,0.1272,0.1268,0.1302,0.1298,0.1292,0.1327,0.1401,0.1326,0.1328,0.1357,0.1518,0.1411,0.1413,0.1421,0.1424,0.1426,0.1511,0,0.1095,0.109,0.1084,0.1103,0.1097,0.1116,0.1143,0.1172,0.1215,0.1275,0.1288,0.1333,0.1315,0.1347,0.1381,0.139,0.1437,0.1378,0.1468,0.147,0.1368,0.1425,0.1434,0.1521,0.1523,0.1525,0.1527,0,0.1087,0.1083,0.1093,0.1112,0.1115,0.1142,0.1195,0.1222,0.129,0.1333,0.1396,0.1415,0.1462,0.1447,0.1521,0.1492,0.1518,0.1525,0.1529,0.1424,0.1385,0.1464,0.1549,0.1547,0.1546,0.1544,0.1543,0,0.1074,0.1093,0.11,0.1102,0.1125,0.1159,0.1193,0.1255,0.1286,0.139,0.1444,0.1504,0.1551,0.1594,0.1608,0.1587,0.1685,0.1657,0.1588,0.158,0.1634,0.1623,0.1735,0.1735,0.1734,0.1734,0.1734,0,0.1058,0.1072,0.1107,0.1105,0.1139,0.1164,0.1228,0.1281,0.1361,0.1411,0.1486,0.1535,0.1598,0.1647,0.1652,0.1654,0.1735,0.1606,0.1602,0.1646,0.1636,0.1642,0.163,0.1737,0.1737,0.1736,0.1735,0,0.1027,0.1048,0.106,0.1105,0.1127,0.1155,0.1234,0.1277,0.1378,0.1454,0.1491,0.1582,0.165,0.1693,0.1758,0.1706,0.1717,0.1705,0.1752,0.1748,0.1566,0.1555,0.1631,0.1628,0.1626,0.1624,0.1622,0,0.1002,0.1007,0.1054,0.1065,0.1093,0.1148,0.1182,0.1275,0.1319,0.1463,0.1482,0.1592,0.1644,0.1649,0.1699,0.1723,0.1702,0.1698,0.162,0.157,0.156,0.1552,0.1545,0.1618,0.1617,0.1617,0.1616,0,0.0958,0.099,0.1,0.1029,0.1066,0.1089,0.1155,0.1176,0.1289,0.1397,0.145,0.1486,0.1561,0.1585,0.1627,0.1632,0.1685,0.1671,0.1675,0.1602,0.1555,0.1545,0.1541,0.1607,0.1609,0.1609,0.161,0,0.0938,0.0934,0.0962,0.0981,0.1019,0.1017,0.1056,0.1105,0.1155,0.1313,0.1326,0.1447,0.1545,0.154,0.1569,0.1574,0.1542,0.1478,0.1491,0.1502,0.1416,0.1333,0.1328,0,0,0,0,0,0.0907,0.0894,0.0907,0.0906,0.0944,0.0965,0.1026,0.1068,0.1185,0.119,0.1256,0.132,0.1372,0.1416,0.1396,0.1505,0.1543,0.1473,0.1474,0.156,0.157,0.1479,0,0,0,0,0,0,0.0879,0.0889,0.0883,0.0854,0.0846,0.0868,0.0904,0.0973,0.0976,0.1106,0.1134,0.1243,0.1302,0.1381,0.1375,0.1392,0.1364,0.1547,0.1544,0.1554,0.1563,0.1571,0.1481,0,0,0,0,0]},{"header":{"parameterUnit":"m.s-1","parameterCategory":2,"la1":30.2991,"la2":30.254,"lo1":-89.0895,"lo2":-89.0444,"dx":0.0017,"dy":0.0017,"nx":28,"ny":28,"refTime":"2022-11-07T03:00:00:Z","depth":"4","parameterNumber":3,"parameterNumberName":"V-component_of_CURRENTS"},"data":[0,0,0,0,0,0,0,0,0,0,0,0,0,0,0,0,0,0,0,0,0,0,0,0,0,0,0,0,0,0,0,0,0,0,0,0,0,0,0,0,0,0,0,0,0,0,0,0,0,0,0,0,0,0,0,0,0,0,0.0425,0.0425,0,0.042,0.042,0.042,0.0412,0.0411,0.0411,0.0411,0.0391,0.039,0.039,0,0,0,0,0,0,0,0,0,0,0,0,0,0.0377,0.0378,0.0425,0.0425,0.0425,0.042,0.042,0.042,0.0412,0.0411,0.0411,0.0411,0.0391,0.039,0.039,0,0,0,0,0,0,0,0,0,0,0,0,0,0.0387,0.0378,0.0425,0.042,0.042,0.042,0.042,0.042,0.0412,0.0411,0.0411,0.0411,0.0391,0.039,0.039,0.0391,0,0,0.0388,0.0388,0,0,0,0,0,0,0,0,0.0387,0.0389,0.0421,0.0421,0.042,0.0416,0.0395,0.0409,0.0412,0.0415,0.0411,0.0411,0.0398,0.0397,0.0397,0.039,0.0389,0.0388,0.0387,0.0387,0.0387,0,0,0,0,0,0,0,0.0386,0.0389,0.0423,0.0421,0.042,0.0401,0.0402,0.0398,0.0408,0.0415,0.0414,0.0413,0.0397,0.0397,0.0396,0.0389,0.0388,0.0387,0.0387,0.0387,0.0385,0.0385,0,0,0,0,0,0,0.039,0.0389,0.0423,0.0423,0.0402,0.0402,0.0404,0.0418,0.0408,0.0406,0.0413,0.0413,0.0398,0.0397,0.0395,0.0406,0.0387,0.0387,0.0386,0.0384,0.0385,0.0385,0,0,0,0,0,0,0.0389,0.0394,0.0424,0.0405,0.0407,0.0403,0.0419,0.0418,0.0417,0.0407,0.0405,0.0414,0.0398,0.0396,0.0389,0.0405,0.0386,0.0386,0.0384,0.0384,0.0385,0.0422,0,0,0,0,0,0,0.0388,0.0394,0.04,0.0406,0.0408,0.043,0.0419,0.0418,0.0417,0.0416,0.0407,0.0405,0.0398,0.039,0.0388,0.0404,0.0385,0.0384,0.0384,0.0385,0.0421,0.0424,0.0427,0,0,0,0,0,0.0387,0.04,0.0401,0.0404,0.042,0.043,0.043,0.0426,0.0417,0.0423,0.041,0.0405,0.0393,0.0389,0.0388,0.0404,0.0383,0.0384,0.0385,0.0419,0.0423,0.0427,0,0,0,0,0,0,0.038,0.04,0.0402,0.042,0.0426,0.0429,0.0436,0.0427,0.0422,0.0422,0.0405,0.0403,0.0405,0.0395,0.0392,0.0404,0.0389,0.0389,0.0416,0.0419,0.0422,0.0427,0.0385,0,0,0,0,0,0.0383,0.0402,0.0412,0.0427,0.0436,0.0435,0.0436,0.0435,0.0432,0.043,0.0415,0.0407,0.0407,0.0405,0.04,0.0404,0.0381,0.0413,0.0416,0.0419,0.0421,0.0398,0.0399,0.0387,0.0387,0.0387,0,0,0.0384,0.0398,0.0407,0.0426,0.0437,0.0448,0.0437,0.0449,0.045,0.0429,0.0422,0.0416,0.0409,0.0415,0.0416,0.0409,0.0409,0.042,0.0422,0.0423,0.0399,0.04,0.0401,0.0388,0.0388,0.0388,0,0,0.0399,0.0415,0.0435,0.0443,0.0459,0.046,0.0464,0.0465,0.0462,0.0457,0.0445,0.0442,0.0433,0.0433,0.0434,0.0449,0.0425,0.0452,0.0473,0.0451,0.0452,0.0452,0.0416,0.0413,0.0454,0.0454,0.0454,0,0.0398,0.0427,0.0439,0.0458,0.0467,0.0467,0.0484,0.0481,0.0471,0.0471,0.046,0.0452,0.0444,0.0457,0.0464,0.0457,0.0434,0.0461,0.0455,0.0455,0.0455,0.0418,0.0414,0.0456,0.0456,0.0456,0.0456,0,0.0427,0.0445,0.0462,0.0487,0.0496,0.0515,0.0517,0.0519,0.0511,0.05,0.0504,0.0491,0.0489,0.0489,0.0482,0.0486,0.0467,0.0461,0.0446,0.0458,0.0419,0.0414,0.0459,0.0458,0.0458,0.0457,0,0,0.0442,0.0475,0.0481,0.0499,0.0515,0.0532,0.054,0.055,0.056,0.0542,0.0547,0.0545,0.0535,0.0534,0.0527,0.0509,0.0485,0.0488,0.0486,0.0454,0.0425,0.0388,0.0379,0.0479,0.0479,0.0478,0.0395,0,0.0463,0.0503,0.051,0.0544,0.0569,0.0573,0.0584,0.0588,0.0584,0.0583,0.057,0.0574,0.0554,0.0563,0.0541,0.0503,0.0476,0.0507,0.0418,0.0415,0.0381,0.0374,0.0477,0.0391,0.039,0.039,0.0389,0,0.0489,0.0514,0.0555,0.0587,0.0601,0.0616,0.0647,0.0658,0.0654,0.0649,0.0644,0.0624,0.0606,0.0586,0.0517,0.0538,0.0485,0.0446,0.0442,0.0392,0.0369,0.0378,0.038,0.0381,0.0381,0.0382,0.0383,0,0.0505,0.0544,0.0582,0.0594,0.0629,0.0651,0.0671,0.0681,0.07,0.0697,0.0701,0.0666,0.0657,0.059,0.0507,0.0512,0.0416,0.0411,0.0323,0.0319,0.0362,0.0362,0.0354,0.0354,0.0354,0.0355,0.0355,0,0.0524,0.0555,0.0598,0.0621,0.067,0.0686,0.0736,0.0744,0.0761,0.0783,0.0745,0.0742,0.0658,0.0592,0.0511,0.0398,0.0415,0.032,0.0296,0.0378,0.0381,0.0358,0.0359,0.0351,0.0352,0.0353,0.0353,0,0.0534,0.0563,0.0613,0.0662,0.0682,0.0724,0.0782,0.0814,0.0824,0.0851,0.0852,0.0796,0.0705,0.0603,0.0484,0.0405,0.0301,0.0256,0.0339,0.0323,0.0215,0.022,0.0146,0.0144,0.0143,0.0141,0.014,0,0.0541,0.0571,0.0646,0.0684,0.0711,0.0774,0.0815,0.0846,0.0875,0.088,0.0887,0.0811,0.0757,0.0554,0.0446,0.0273,0.0252,0.0188,0.0209,0.021,0.0194,0.0201,0.0208,0.0137,0.0137,0.0136,0.0136,0,0.0554,0.059,0.0632,0.0709,0.0765,0.0828,0.0884,0.0904,0.0938,0.0948,0.0901,0.0799,0.0688,0.0538,0.04,0.0281,0.0225,0.017,0.0173,0.0192,0.0198,0.0186,0.0194,0.013,0.0131,0.0131,0.0132,0,0.0565,0.0597,0.0658,0.0722,0.0796,0.0853,0.0887,0.0911,0.0936,0.0934,0.0915,0.0801,0.0741,0.0541,0.0418,0.029,0.0259,0.0216,0.0216,0.0221,0.0268,0.0288,0.0221,0,0,0,0,0,0.0568,0.0601,0.0663,0.0731,0.0804,0.0847,0.0917,0.0946,0.0971,0.0939,0.0927,0.0821,0.0625,0.0544,0.0408,0.0384,0.0237,0.0218,0.0188,0.0098,0.0104,0.0144,0,0,0,0,0,0,0.057,0.0627,0.0654,0.0723,0.0769,0.0846,0.0894,0.0917,0.0898,0.0905,0.0804,0.0768,0.0582,0.0697,0.0397,0.036,0.0317,0.0137,0.0133,0.0094,0.01,0.0105,0.0148,0,0,0,0,0]}]]